Terug naar catalogus

STARLINK-3758

ActiefCommunicatieVLEO
NORAD 52297·PAYLOAD·🇺🇸 United States

Gelanceerd Apr 21, 2022 vanaf Cape Canaveral Space Force Station

Loading…

Volgende Passages (komende 24 uur)

TLE

VersSource: CelesTrak SupGP

Epoch: Sep 14, 2026, 21:22 UTC

1 52297C 22041AN  26257.89076389 -.00017191  00000+0 -52173-3 0  2574
2 52297  53.1586 318.0896 0001213  79.0035 314.4789 15.33552211    16

Volg STARLINK-3758 in realtime met AllMySat

Download on the App Store